www.pogodaiklimat.ru

Погода и климат >> Архив погоды >> Казахстан >> Тайпак


ПОГОДА в Тайпаке

АРХИВ ПОГОДЫ в Тайпаке

Время (UTC), дата Ветер
(напр.,м/с)
 
Видим.   Явления Облачность Т
(С)
Тd
(С)
f
(%)
Тe
(С)
Тes
(С)
Комфортность P
(гПа)
Po
(гПа)
Тmin
(С)
Tmax
(С)
R
(мм)
R24
(мм)
S
(см)
06 13.09 Ю 3 10 км 6/0
[Ac trans]
+24.3 +2.8 25 +24 +27 комфорт 1024.3 1024.1 +19.9
09 13.09 Ю 3 10 км 3/0
[Ac trans]
+29.6 +0.9 16 +27 +34 жарко 1023.3 1023.1
12 13.09 Ю 3 10 км 1/0
[Ac trans]
+30.0 +0.2 15 +27 +30 жарко 1022.4 1022.2
15 13.09 Ю 1 10 км 1/0
[Ac trans]
+26.3 +0.6 19 +25 +25 комфорт 1021.8 1021.6 +30.4
18 13.09 ЮВ 1 н/о ясно +20.3 -0.7 24 +21 +21 комфорт 1022.3 1022.1 +30.4
21 13.09 Ю 3 н/о ясно +17.5 -5.6 20 +18 +18 1021.5 1021.3
00 14.09 Ю 2 н/о ясно +14.9 -8.4 19 +15 +15 1021.4 1021.2
03 14.09 Ю 3 10 км ясно +14.0 -7.9 21 +13 +14 1021.6 1021.4
06 14.09 Ю 3 10 км {метель} 3/0
[Ac trans]
+24.5 -6.0 13 +22 +27 комфорт 1021.2 1021.0 +13.2
09 14.09 Ю 5 10 км пыльный позёмок {метель} 4/0
[Ci fib]
+29.2 -6.2 9 +26 +30 жарко 1020.0 1019.8
12 14.09 Ю 4 10 км пыльный позёмок {метель} 4/0
[Ci fib]
+30.5 -3.7 11 +27 +30 жарко 1019.0 1018.8
15 14.09 Ю 2 10 км {метель} 6/0
[Ac trans]
+26.5 -0.9 17 +24 +24 комфорт 1018.6 1018.4 +30.8
18 14.09 Ю 1 н/о {метель} ясно +20.2 -1.7 23 +21 +21 комфорт 1019.8 1019.6 +30.8
21 14.09 ЮВ 2 н/о ясно +16.5 -4.0 24 +17 +17 1019.8 1019.6
00 15.09 Ю 2 н/о ясно +15.5 -9.2 17 +16 +16 1020.1 1019.8
03 15.09 ЮВ 1 10 км 4/0
[Ci fib]
+12.8 -9.8 20 +13 +14 1020.7 1020.5
06 15.09 ЮВ 2 10 км 6/0
[Ci fib]
+23.4 -8.3 11 +21 +26 комфорт 1020.6 1020.4 +12.4
09 15.09 ЮВ 2 10 км 8/0
[Ci fib]
+28.9 -11.1 7 +25 +33 комфорт 1020.4 1020.2
12 15.09 Ю 3 10 км 6/6 1000 м
[Cu med, cong]
+27.9 -8.3 9 +24 +26 комфорт 1019.3 1019.1
15 15.09 ЮВ 2 10 км 5/5 1000 м
[Cu med, cong]
+23.6 -7.6 12 +21 +21 комфорт 1019.5 1019.3 +29.4
18 15.09 ЮВ 1 н/о 4/0
[Ac trans]
+19.9 -8.1 14 +21 +21 комфорт 1019.7 1019.5 +29.4
21 15.09 Ю 2 н/о ясно +16.5 -9.4 16 +17 +17 1019.2 1019.0
00 16.09 В 1 н/о ясно +14.2 -9.0 19 +15 +15 1018.6 1018.4
03 16.09 В 2 10 км 6/0
[Ac trans]
+14.5 -7.7 21 +15 +15 1018.1 1017.9
06 16.09 Ю 3 10 км 6/0
[Ac trans]
+25.0 -5.5 13 +23 +26 комфорт 1017.8 1017.6 +13.3
09 16.09 Ю 5 10 км пыльный позёмок {метель} 8/0
[Ac trans]
+28.6 -6.4 10 +25 +28 комфорт 1016.9 1016.7
12 16.09 З 3 10 км {метель} 9/9 600 м
[Cb calv]
+23.9 +0.6 22 +23 +23 комфорт 1016.8 1016.6
15 16.09 Ю 3 10 км слабый ливневой дождь 10/10 600 м
[Cb calv]
+22.0 +0.2 23 +21 +21 комфорт 1016.4 1016.2 +29.3
18 16.09 В 1 н/о {ливн. осадки} 9/9 600 м
[Cb calv]
+19.5 +1.9 31 +21 +21 комфорт 1015.3 1015.1 +29.3 0.0
21 16.09 В 1 н/о ясно +17.3 +0.4 32 +18 +18 1013.9 1013.7
00 17.09 В 1 н/о 10/0
[Ac As]
+19.0 -3.3 22 +20 +20 1012.8 1012.6
03 17.09 ЮВ 2 10 км 8/0
[Ac trans]
+17.8 -4.7 21 +18 +18 1011.7 1011.5
06 17.09 Ю 5 10 км пыльный позёмок {метель} 9/0
[Ac trans]
+25.4 -6.4 12 +23 +24 комфорт 1010.7 1010.5 +17.0 0.0
09 17.09 Ю 6 10 км пыльный позёмок {метель} 9/0
[Ac trans]
+29.1 -6.9 9 +25 +27 комфорт 1009.1 1008.9
12 17.09 ЮЗ 5 500 м слабый ливневой дождь со снегом 8/8 600 м
[Cb calv]
+28.1 +0.4 17 +26 +26 жарко 1008.2 1008.0
15 17.09 З 4
{18}
10 км {ливн. осадки, метель} 9/9 600 м
[Cb calv]
+24.3 +13.5 51 +27 +27 жарко 1008.1 1007.9 +29.4
18 17.09 З 3 н/о {ливн. осадки} 6/6 600 м
[Cb calv]
+20.0 +11.9 60 +22 +22 комфорт 1009.5 1009.3 +29.4 0.0
21 17.09 ЮЗ 2 н/о ясно +15.0 +11.5 80 +15 +15 1010.0 1009.8
00 18.09 ЮЗ 3 н/о ясно +12.4 +10.9 91 +11 +11 1010.1 1009.9
03 18.09 ЮЗ 2 10 км 9/0
[Ac trans]
+12.7 +10.2 85 +12 +12 1009.6 1009.4
06 18.09 ЮЗ 2 10 км в посл. час ливневой дождь 10/10 600 м
[Cb calv]
+14.0 +11.2 83 +13 +13 1009.5 1009.3 +11.1
09 18.09 Ю 4 10 км слабый ливневой дождь 10/10 600 м
[Cb calv]
+14.3 +14.3 100 +13 +13 1008.3 1008.1
12 18.09 З 3 10 км {ливн. осадки} 10/10 600 м
[Cb calv]
+16.3 +16.3 100 +16 +16 1007.3 1007.1
15 18.09 З 2 10 км 9/9
[Cb calv]
+14.9 +14.9 100 +14 +14 1008.7 1008.5 +17.4
18 18.09 З 2 н/о 5/5 600 м
[Cb calv]
+14.4 +14.0 97 +14 +14 1009.2 1009.0 +17.4 1
21 18.09 СЗ 3 н/о ясно +12.9 +12.9 100 +11 +11 1010.0 1009.8
00 19.09 З 3 н/о 3/3 600 м
[Cb calv]
+11.2 +10.6 96 +9 +9 1010.4 1010.2
03 19.09 З 2 10 км 9/0
[Ac trans]
+11.2 +10.0 92 +10 +10 1010.7 1010.5
06 19.09 З 3 10 км 9/9 600 м
[Cb calv]
+14.2 +11.4 83 +13 +14 1010.7 1010.5 +10.5
09 19.09 СЗ 4 10 км 10/10 600 м
[Cb calv]
+17.2 +10.0 63 +17 +17 1009.7 1009.5
12 19.09 СЗ 5 10 км {метель} 8/8 600 м
[Cb calv]
+18.9 +5.3 41 +19 +19 1009.3 1009.1
15 19.09 СЗ 4 10 км {метель} 5/5 600 м
[Cb calv]
+15.4 +3.6 45 +15 +15 1010.1 1009.9 +19.3
18 19.09 СЗ 2 н/о {метель} 6/0
[Ac trans]
+10.8 +4.0 63 +10 +10 1011.5 1011.3 +19.3
21 19.09 СЗ 2 н/о 8/0
[Ac trans]
+9.0 +3.9 70 +7 +7 1011.9 1011.7
00 20.09 СЗ 3 н/о 3/0
[Ac trans]
+5.8 +3.1 83 +3 +3 1012.5 1012.3

 

Местоположение метеостанции Тайпак (Западно-Казахстанская область, Казахстан): широта 49.05 долгота 51.87 высота над уровнем моря 2 м.

В архиве по умолчанию представлена погода в Тайпаке за последнюю неделю. Архивные данные за месяц целиком и за предыдущие месяцы, начиная с января 2011 года, Вы можете получить, выбрав интересующий диапазон дат из раскрывающегося списка и нажав кнопку "Ввод!".


*Определитесь, кто Вы:
робот инопланетянин человек

Внимание! Время в таблицах - всемирное. Для получения местного времени необходимо прибавить поправку, которая в Тайпаке равна 5 ч.

Смотрите также архив погоды в соседних городах и на ближайших метеорологических станциях:

Погода в Индерборском (Атырауская область, Казахстан) (62 км)
Погода в Карабау (Атырауская область, Казахстан) (102 км)
Погода в Жангала (Западно-Казахстанская область, Казахстан) (116 км)
Погода в Каратобе (Западно-Казахстанская область, Казахстан) (131 км)
Погода в Чапаево (Западно-Казахстанская область, Казахстан) (137 км)
Погода в Джамбейты (Западно-Казахстанская область, Казахстан) (143 км)
Погода в Махамбете (Атырауская область, Казахстан) (155 км)
Погода в Жалпактале (Западно-Казахстанская область, Казахстан) (186 км)
Погода в Макате (Атырауская область, Казахстан) (189 км)
Погода в Анкаты (Западно-Казахстанская область, Казахстан) (198 км)

Пояснения к столбцам:

Ветер - указаны скорость ветра в м/с - средняя за 10 мин, порывы в срок и между сроками (в фигурных скобках) и направление, откуда дует ветер: С - северный, СВ - северо-восточный, В - восточный, ЮВ - юго-восточный, Ю - южный, ЮЗ - юго-западный, З - западный, СЗ - северо-западный.
Видимость - горизонтальная дальность видимости в метрах или километрах. При видимости от 1 до 10 км при отсутствии осадков обычно наблюдается дымка, при ухудшении видимости до 1 км и менее - туман. В сухую погоду видимость может ухудшаться дымом, пылью или мглою.
Явления - указаны атмосферные явления, наблюдавшиеся в срок или в последний час перед сроком; фигурными скобками обозначены явления, наблюдавшиеся между сроками (за 1-3 часа до срока); квадратными скобками обозначены град или гололедные отложения с указанием их диаметра в мм.
Облачность - указаны через наклонную черту общая и нижняя облачность в баллах и высота нижней границы облаков в метрах; квадратными скобками обозначены формы облаков: Ci - перистые, Cs - перисто-слоистые, Cc - перисто-кучевые, Ac - высококучевые, As - высокослоистые, Sc - слоисто-кучевые, Ns - слоисто-дождевые, Cu - кучевые, Cb - кучево-дождевые. Подробнее классификацию облаков см. в Атласе облаков (PDF).
T - Температура воздуха - температура, измеренная на высоте 2 м над землей.
Td - Температура точки росы - температура, при понижении до которой содержащийся в воздухе водяной пар достигнет насыщения.
f - Относительная влажность воздуха - влажноcть воздуха, измеренная на высоте 2 м над землей.
Te - Эффективная температура - температура, которую ощущает одетый по сезону человек в тени. Характеристика душности погоды. При расчете учитывается влияние влажности воздуха и скорости ветра на теплоощущения человека.
Tes - Эффективная температура на солнце - температура, которую ощущает человек, с поправкой на солнечный нагрев. Характеристика знойности погоды. Зависит от высоты солнца над горизонтом, облачности и скорости ветра. Ночью, в пасмурную погоду, а также при ветре 12 м/с и более поправка равна нулю.
P - Атмосферное давление - приведенное к уровню моря атмосферное давление.
Po - Атмосферное давление - измеренное на уровне метеостанции атмосферное давление.
Tmin - Минимальная температура - минимум температуры воздуха на высоте 2 м над землей.
Tmax - Максимальная температура - максимум температуры воздуха на высоте 2 м над землей.
R - Количество осадков - Количество выпавших осадков за период времени, мм. При наведении курсора мыши на число - период времени, за который выпало указанное количество осадков.
R24 - Количество осадков - Количество выпавших осадков за 24 часа, мм.
S - Снежный покров - Высота снежного покрова, см. При наведении курсора мыши на число - состояние снежного покрова и степень покрытия местности в баллах.